Time,TemperatureF,DewpointF,PressureIn,WindDirection,WindDirectionDegrees,WindSpeedMPH,WindSpeedGustMPH,Humidity,HourlyPrecipIn,Conditions,Clouds,dailyrainin,SoftwareType,DateUTC
2013-02-08 00:00:00,15.0,5.0,-100.00,South,171,36.0,49.0,64,-99.99,,,-99.99,,2013-02-08 07:00:00,
2013-02-08 00:42:00,15.0,5.0,-100.00,South,171,36.0,49.0,64,-99.99,,,-99.99,,2013-02-08 07:42:00,
2013-02-08 00:52:00,15.0,5.0,-100.00,South,171,36.0,49.0,64,-99.99,,,-99.99,,2013-02-08 07:52:00,
2013-02-08 01:00:00,14.0,2.0,-100.00,South,173,30.0,43.0,58,-99.99,,,-99.99,,2013-02-08 08:00:00,
2013-02-08 01:42:00,14.0,2.0,-100.00,South,173,30.0,43.0,58,-99.99,,,-99.99,,2013-02-08 08:42:00,
2013-02-08 01:52:00,14.0,2.0,-100.00,South,173,30.0,43.0,58,-99.99,,,-99.99,,2013-02-08 08:52:00,
2013-02-08 02:00:00,14.0,2.0,-100.00,South,173,35.0,53.0,56,-99.99,,,-99.99,,2013-02-08 09:00:00,
2013-02-08 02:42:00,14.0,2.0,-100.00,South,173,35.0,53.0,56,-99.99,,,-99.99,,2013-02-08 09:42:00,
2013-02-08 02:52:00,14.0,2.0,-100.00,South,173,35.0,53.0,56,-99.99,,,-99.99,,2013-02-08 09:52:00,
2013-02-08 03:00:00,15.0,5.0,-100.00,South,174,43.0,60.0,65,-99.99,,,-99.99,,2013-02-08 10:00:00,
2013-02-08 03:42:00,15.0,5.0,-100.00,South,174,43.0,60.0,65,-99.99,,,-99.99,,2013-02-08 10:42:00,
2013-02-08 03:52:00,15.0,5.0,-100.00,South,174,43.0,60.0,65,-99.99,,,-99.99,,2013-02-08 10:52:00,
2013-02-08 04:00:00,14.0,6.0,-100.00,South,174,35.0,51.0,69,-99.99,,,-99.99,,2013-02-08 11:00:00,
2013-02-08 04:42:00,14.0,6.0,-100.00,South,174,35.0,51.0,69,-99.99,,,-99.99,,2013-02-08 11:42:00,
2013-02-08 04:52:00,14.0,6.0,-100.00,South,174,35.0,51.0,69,-99.99,,,-99.99,,2013-02-08 11:52:00,
2013-02-08 05:00:00,14.0,9.0,-100.00,South,175,36.0,48.0,81,-99.99,,,-99.99,,2013-02-08 12:00:00,
2013-02-08 05:42:00,14.0,9.0,-100.00,South,175,36.0,48.0,81,-99.99,,,-99.99,,2013-02-08 12:42:00,
2013-02-08 05:52:00,14.0,9.0,-100.00,South,175,36.0,48.0,81,-99.99,,,-99.99,,2013-02-08 12:52:00,
2013-02-08 06:00:00,14.0,12.0,-100.00,South,175,34.0,47.0,93,-99.99,,,-99.99,,2013-02-08 13:00:00,
2013-02-08 06:43:00,14.0,12.0,-100.00,South,175,34.0,47.0,93,-99.99,,,-99.99,,2013-02-08 13:43:00,
2013-02-08 06:52:00,14.0,12.0,-100.00,South,175,34.0,47.0,93,-99.99,,,-99.99,,2013-02-08 13:52:00,
2013-02-08 07:00:00,14.0,13.0,-100.00,South,177,25.0,51.0,94,-99.99,,,-99.99,,2013-02-08 14:00:00,
2013-02-08 07:42:00,14.0,13.0,-100.00,South,177,25.0,51.0,94,-99.99,,,-99.99,,2013-02-08 14:42:00,
2013-02-08 07:52:00,14.0,13.0,-100.00,South,177,25.0,51.0,94,-99.99,,,-99.99,,2013-02-08 14:52:00,
2013-02-08 08:00:00,16.0,11.0,-100.00,South,172,36.0,61.0,80,-99.99,,,-99.99,,2013-02-08 15:00:00,
2013-02-08 08:42:00,16.0,11.0,-100.00,South,172,36.0,61.0,80,-99.99,,,-99.99,,2013-02-08 15:42:00,
2013-02-08 08:52:00,16.0,11.0,-100.00,South,172,36.0,61.0,80,-99.99,,,-99.99,,2013-02-08 15:52:00,
2013-02-08 09:00:00,15.0,8.0,-100.00,SSE,165,37.0,60.0,73,-99.99,,,-99.99,,2013-02-08 16:00:00,
2013-02-08 09:42:00,15.0,8.0,-100.00,SSE,165,37.0,60.0,73,-99.99,,,-99.99,,2013-02-08 16:42:00,
2013-02-08 09:52:00,15.0,8.0,-100.00,SSE,165,37.0,60.0,73,-99.99,,,-99.99,,2013-02-08 16:52:00,
2013-02-08 10:00:00,15.0,8.0,-100.00,South,173,37.0,57.0,72,-99.99,,,-99.99,,2013-02-08 17:00:00,
2013-02-08 10:42:00,15.0,8.0,-100.00,South,173,37.0,57.0,72,-99.99,,,-99.99,,2013-02-08 17:42:00,
2013-02-08 10:52:00,15.0,8.0,-100.00,South,173,37.0,57.0,72,-99.99,,,-99.99,,2013-02-08 17:52:00,
2013-02-08 11:00:00,16.0,9.0,-100.00,South,176,35.0,61.0,70,-99.99,,,-99.99,,2013-02-08 18:00:00,
2013-02-08 11:44:00,16.0,9.0,-100.00,South,176,35.0,61.0,70,-99.99,,,-99.99,,2013-02-08 18:44:00,
2013-02-08 11:52:00,16.0,9.0,-100.00,South,176,35.0,61.0,70,-99.99,,,-99.99,,2013-02-08 18:52:00,
2013-02-08 12:00:00,17.0,11.0,-100.00,South,172,48.0,85.0,76,-99.99,,,-99.99,,2013-02-08 19:00:00,
2013-02-08 12:42:00,17.0,11.0,-100.00,South,172,48.0,85.0,76,-99.99,,,-99.99,,2013-02-08 19:42:00,
2013-02-08 12:52:00,17.0,11.0,-100.00,South,172,48.0,85.0,76,-99.99,,,-99.99,,2013-02-08 19:52:00,
2013-02-08 13:00:00,17.0,10.0,-100.00,South,172,46.0,71.0,72,-99.99,,,-99.99,,2013-02-08 20:00:00,
2013-02-08 13:42:00,17.0,10.0,-100.00,South,172,46.0,71.0,72,-99.99,,,-99.99,,2013-02-08 20:42:00,
2013-02-08 13:52:00,17.0,10.0,-100.00,South,172,46.0,71.0,72,-99.99,,,-99.99,,2013-02-08 20:52:00,
2013-02-08 14:00:00,17.0,11.0,-100.00,South,170,43.0,60.0,77,-99.99,,,-99.99,,2013-02-08 21:00:00,
2013-02-08 14:42:00,17.0,11.0,-100.00,South,170,43.0,60.0,77,-99.99,,,-99.99,,2013-02-08 21:42:00,
2013-02-08 14:52:00,17.0,11.0,-100.00,South,170,43.0,60.0,77,-99.99,,,-99.99,,2013-02-08 21:52:00,
2013-02-08 15:00:00,17.0,11.0,-100.00,South,172,40.0,57.0,77,-99.99,,,-99.99,,2013-02-08 22:00:00,
2013-02-08 15:42:00,17.0,11.0,-100.00,South,172,40.0,57.0,77,-99.99,,,-99.99,,2013-02-08 22:42:00,
2013-02-08 15:52:00,17.0,11.0,-100.00,South,172,40.0,57.0,77,-99.99,,,-99.99,,2013-02-08 22:52:00,
2013-02-08 16:00:00,16.0,14.0,-100.00,South,174,29.0,48.0,89,-99.99,,,-99.99,,2013-02-08 23:00:00,
2013-02-08 16:42:00,16.0,14.0,-100.00,South,174,29.0,48.0,89,-99.99,,,-99.99,,2013-02-08 23:42:00,
2013-02-08 16:52:00,16.0,14.0,-100.00,South,174,29.0,48.0,89,-99.99,,,-99.99,,2013-02-08 23:52:00,
2013-02-08 17:00:00,16.0,14.0,-100.00,South,174,32.0,55.0,93,-99.99,,,-99.99,,2013-02-09 00:00:00,
2013-02-08 17:42:00,16.0,14.0,-100.00,South,174,32.0,55.0,93,-99.99,,,-99.99,,2013-02-09 00:42:00,
2013-02-08 17:52:00,16.0,14.0,-100.00,South,174,32.0,55.0,93,-99.99,,,-99.99,,2013-02-09 00:52:00,
2013-02-08 18:00:00,16.0,15.0,-100.00,South,173,40.0,54.0,92,-99.99,,,-99.99,,2013-02-09 01:00:00,
2013-02-08 18:42:00,16.0,15.0,-100.00,South,173,40.0,54.0,92,-99.99,,,-99.99,,2013-02-09 01:42:00,
2013-02-08 18:52:00,16.0,15.0,-100.00,South,173,40.0,54.0,92,-99.99,,,-99.99,,2013-02-09 01:52:00,
2013-02-08 19:00:00,17.0,13.0,-100.00,South,177,45.0,66.0,84,-99.99,,,-99.99,,2013-02-09 02:00:00,
2013-02-08 19:42:00,17.0,13.0,-100.00,South,177,45.0,66.0,84,-99.99,,,-99.99,,2013-02-09 02:42:00,
2013-02-08 19:52:00,17.0,13.0,-100.00,South,177,45.0,66.0,84,-99.99,,,-99.99,,2013-02-09 02:52:00,
2013-02-08 20:00:00,18.0,9.0,-100.00,South,177,43.0,59.0,68,-99.99,,,-99.99,,2013-02-09 03:00:00,
2013-02-08 20:42:00,18.0,9.0,-100.00,South,177,43.0,59.0,68,-99.99,,,-99.99,,2013-02-09 03:42:00,
2013-02-08 20:52:00,18.0,9.0,-100.00,South,177,43.0,59.0,68,-99.99,,,-99.99,,2013-02-09 03:52:00,
2013-02-08 21:00:00,17.0,6.0,-100.00,South,174,41.0,59.0,61,-99.99,,,-99.99,,2013-02-09 04:00:00,
2013-02-08 21:42:00,17.0,6.0,-100.00,South,174,41.0,59.0,61,-99.99,,,-99.99,,2013-02-09 04:42:00,
2013-02-08 21:52:00,17.0,6.0,-100.00,South,174,41.0,59.0,61,-99.99,,,-99.99,,2013-02-09 04:52:00,
2013-02-08 22:00:00,16.0,6.0,-100.00,South,178,47.0,65.0,62,-99.99,,,-99.99,,2013-02-09 05:00:00,
2013-02-08 22:42:00,16.0,6.0,-100.00,South,178,47.0,65.0,62,-99.99,,,-99.99,,2013-02-09 05:42:00,
2013-02-08 22:52:00,16.0,6.0,-100.00,South,178,47.0,65.0,62,-99.99,,,-99.99,,2013-02-09 05:52:00,
2013-02-08 23:00:00,15.0,6.0,-100.00,South,177,47.0,64.0,67,-99.99,,,-99.99,,2013-02-09 06:00:00,
2013-02-08 23:42:00,15.0,6.0,-100.00,South,177,47.0,64.0,67,-99.99,,,-99.99,,2013-02-09 06:42:00,
2013-02-08 23:52:00,15.0,6.0,-100.00,South,177,47.0,64.0,67,-99.99,,,-99.99,,2013-02-09 06:52:00,